Printer-friendly version

IAU Minor Planet Center

Minor Planet Center

MPEC 2007-D67 : 2007 DK49

The following Minor Planet Electronic Circular may be linked-to from your own Web pages, but must not otherwise be redistributed electronically.


Read MPEC 2007-D66 Read MPEC 2007-D68


M.P.E.C. 2007-D67                                Issued 2007 Feb. 24, 17:57 UT

     The Minor Planet Electronic Circulars contain information on unusual
         minor planets and routine data on comets.  They are published
   on behalf of Commission 20 of the International Astronomical Union by the
          Minor Planet Center, Smithsonian Astrophysical Observatory,
                          Cambridge, MA 02138, U.S.A.

             Prepared using the Tamkin Foundation Computer Network

                              MPC@CFA.HARVARD.EDU
          URL http://cfa-www.harvard.edu/iau/mpc.html  ISSN 1523-6714

                                   2007 DK49

Observations:
     K07D49K* C2007 02 23.70141 13 46 32.73 -29 25 46.0          19.6 V ED067E12
     K07D49K  C2007 02 23.71711 13 46 34.71 -29 26 08.6          19.3 V ED067E12
     K07D49K  C2007 02 23.73101 13 46 36.55 -29 26 27.9          19.6 V ED067E12
     K07D49K  C2007 02 23.74483 13 46 38.42 -29 26 46.8          18.9 V ED067E12
     K07D49K  C2007 02 24.26492 13 47 48.95 -29 38 39.0          19.3 R ED067I77
     K07D49K  C2007 02 24.27019 13 47 49.64 -29 38 46.3          19.1 R ED067I77
     K07D49K  C2007 02 24.28074 13 47 50.99 -29 39 00.7          18.8 R ED067I77
     K07D49K  C2007 02 24.42419 13 48 11.28 -29 42 06.3          19.1 R ED067474
     K07D49K  C2007 02 24.42627 13 48 11.62 -29 42 09.5          19.3 R ED067474
     K07D49K  C2007 02 24.42905 13 48 12.05 -29 42 12.2          19.4 R ED067474
     K07D49K  C2007 02 24.61806 13 48 37.22 -29 46 34.9          19.0 R ED067474
     K07D49K  C2007 02 24.62235 13 48 37.78 -29 46 40.5          19.2 R ED067474
     K07D49K  C2007 02 24.62558 13 48 38.22 -29 46 45.1          19.1 R ED067474
     K07D49K  C2007 02 24.64312 13 48 40.88 -29 47 10.8          19.4 V ED067E12
     K07D49K  C2007 02 24.65543 13 48 42.45 -29 47 28.2          19.6 V ED067E12

Observer details:
474 Mount John Observatory, Lake Tekapo.  Observer A. C. Gilmore.  1.0-m f/7.7
    reflector + CCD.
E12 Siding Spring Survey.  Observer G. J. Garradd.  Measurers E. C. Beshore,
    E. J. Christensen, G. J. Garradd, A. R. Gibbs, A. D. Grauer, R. E. Hill,
    R. A. Kowalski, S. M. Larson, R. H. McNaught.  0.5-m Uppsala Schmidt + CCD.
I77 CEAMIG-REA Observatory, Belo Horizonte.  Observers C. Jacques, E. Pimentel.
    Measurer C. Jacques.  0.30-m f/3.0 Schmidt-Cassegrain + CCD.

Orbital elements:
2007 DK49                                                Earth MOID = 0.2651 AU
Epoch 2007 Apr. 10.0 TT = JDT 2454200.5                 MPC
M 352.06065              (2000.0)            P               Q
n   0.32492902     Peri.  324.37487     -0.63348719     +0.76154100
a   2.0954488      Node   265.90875     -0.67429684     -0.63014226
e   0.3969845      Incl.    7.89036     -0.37949670     -0.15157848
P   3.03           H   18.1           G   0.15           U   9
Residuals in seconds of arc
070223 E12  0.2+  1.0+    070224 I77  0.2-  0.1-    070224 474  0.0   0.1-
070223 E12  0.6-  0.1-    070224 I77  0.4-  0.1-    070224 474  0.0   0.2+
070223 E12  0.1-  0.4-    070224 474  0.6-  0.4-    070224 474  0.1+  0.0
070223 E12  0.8+  0.4-    070224 474  0.1+  0.7-    070224 E12  0.4+  0.5+
070224 I77  0.3-  0.0     070224 474  0.8+  0.5+    070224 E12  0.2-  0.1+

Ephemeris:
2007 DK49                a,e,i = 2.10, 0.40, 8                   q = 1.2636
Date    TT    R. A. (2000) Decl.     Delta      r     Elong.  Phase     V
2007 02 19    13 36.08   -27 38.4    0.701    1.442   116.2    38.0    19.7
2007 03 01    13 58.70   -31 25.6    0.617    1.402   119.5    38.0    19.3
2007 03 11    14 22.92   -35 04.1    0.544    1.365   122.5    37.9    19.0
2007 03 21    14 48.89   -38 22.4    0.480    1.333   125.4    37.5    18.6
2007 03 31    15 16.53   -41 04.9    0.426    1.306   128.3    36.9    18.3
2007 04 10    15 45.27   -42 54.5    0.380    1.285   131.4    35.8    18.0
2007 04 20    16 13.49   -43 33.4    0.343    1.271   135.2    33.8    17.7
2007 04 30    16 39.01   -42 47.8    0.314    1.264   140.1    30.8    17.4
2007 05 10    16 59.69   -40 33.5    0.294    1.265   146.3    26.3    17.1
2007 05 20    17 14.11   -36 58.5    0.283    1.272   154.1    20.3    16.9
2007 05 30    17 22.71   -32 26.2    0.283    1.287   163.4    13.0    16.7
2007 06 09    17 27.25   -27 34.4    0.295    1.309   173.4     5.1    16.5
2007 06 19    17 29.87   -23 03.3    0.321    1.336   175.8     3.2    16.6
2007 06 29    17 32.75   -19 22.1    0.360    1.369   166.2    10.2    17.2
2007 07 09    17 37.12   -16 40.8    0.412    1.406   157.2    16.3    17.8
2007 07 19    17 43.54   -14 54.4    0.478    1.447   149.0    21.2    18.3
2007 07 29    17 52.22   -13 51.1    0.556    1.491   141.6    25.0    18.8
2007 08 08    18 02.93   -13 17.4    0.645    1.538   134.8    27.9    19.3
2007 08 18    18 15.40   -13 02.1    0.745    1.587   128.5    30.0    19.8
2007 08 28    18 29.39   -12 56.2    0.855    1.637   122.4    31.4    20.2
2007 09 07    18 44.56   -12 53.2    0.974    1.687   116.7    32.3    20.5
2007 09 17    19 00.67   -12 48.6    1.103    1.739   111.0    32.7    20.9
2007 09 27    19 17.52   -12 39.0    1.238    1.790   105.5    32.7    21.2
2007 10 07    19 34.89   -12 22.6    1.381    1.841   100.1    32.3    21.5
2007 10 17    19 52.64   -11 58.1    1.529    1.892    94.7    31.7    21.8
2007 10 27    20 10.63   -11 25.0    1.682    1.942    89.3    30.8    22.0

Timothy B. Spahr             (C) Copyright 2007 MPC           M.P.E.C. 2007-D67

Read MPEC 2007-D66 Read MPEC 2007-D68


Our Web policy. Index to the CBAT/MPC/ICQ pages.


Valid HTML 4.01!